Regional Weather Roundup
Issued by NWS Jackson, KY

Home | Current Version | Previous Version | Graphics & Text | Print | Product List | Glossary On
Versions: 1 2 3 4 5 6 7 8 9 10 11 12 13 14 15 16 17 18 19 20 21 22 23 24 25 26 27 28 29 30 31 32 33 34 35 36 37 38 39 40 41 42 43 44 45 46 47 48 49 50
447
ASUS43 KJKL 262110
RWRJKL

EAST KENTUCKY HOURLY WEATHER ROUNDUP
NATIONAL WEATHER SERVICE JACKSON KY
500 PM EDT MON JUN 26 2017

NOTE: "FAIR" INDICATES FEW OR NO CLOUDS BELOW 12,000 FEET WITH
NO SIGNIFICANT WEATHER AND/OR OBSTRUCTIONS TO VISIBILITY.

* THESE REPORTS ARE NOT UNDER NWS QUALITY CONTROL AND MAY NOT
  REPORT WEATHER SUCH AS PRECIPITATION AND FOG.

KYZ079-080-083-085-087-088-110-112-115-119-120-262200
...EASTERN KENTUCKY...

CITY           SKY/WX    TMP DP  RH WIND       PRES   REMARKS
JACKSON        MOSUNNY   73  49  42 VRB6      30.13F
LONDON         CLOUDY    77  49  37 NW12      30.13F
SOMERSET*      MOSUNNY   73  46  38 W8        30.14F
MONTICELLO*    MOSUNNY   76  53  44 NW9       30.14F
WILLIAMSBURG*  CLOUDY    75  52  43 W7        30.13F
MIDDLESBORO*   PTSUNNY   77  53  43 NW6       30.12F
HARLAN APT*    MOCLDY    75  48  38 CALM      30.13F
PIKE CO APT*     N/A     72  51  47 W7        30.12F
BIG SANDY APT* PTCLDY    75  51  43 NW9       30.12F
MOREHEAD APT*  PTCLDY    73  46  38 CALM      30.14F HAZE
ASHLAND*       MOSUNNY   73  54  49 N3        30.09F
$$

KYZ035-036-041-042-044-050-067-078-099-262200
...CENTRAL KENTUCKY...

CITY           SKY/WX    TMP DP  RH WIND       PRES   REMARKS
MT STERLING*   PTSUNNY   73  50  43 W9        30.15S
FLEMING/MASON* MOSUNNY   74  51  44 W7        30.13S
DANVILLE*      MOSUNNY   77  48  36 W8G16     30.14F
LEXINGTON      MOSUNNY   75  46  35 NW7       30.13F
FRANKFORT      MOSUNNY   76  47  35 W8        30.11F
LOUISVILLE     PTSUNNY   80  50  34 W16       30.11F
LEBANON*         N/A    N/A N/A N/A MISG        N/A
GLASGOW*       SUNNY     78  46  32 NW6       30.13F
BOWLING GREEN  SUNNY     78  50  37 NW8       30.13F
$$

KYZ091>093-OHZ055-061-077-WVZ005-015-034-035-042-262200
...SOUTHERN OHIO/WEST VIRGINIA...

CITY           SKY/WX    TMP DP  RH WIND       PRES   REMARKS
COVINGTON      PTSUNNY   74  50  42 W12G21    30.10F
COLUMBUS       PTSUNNY   73  47  39 W8        30.06F
DAYTON         CLOUDY    70  45  40 W14       30.09F
WILMINGTON     MOSUNNY   72  49  44 W13       30.09F
HUNTINGTON     PTSUNNY   76  48  37 VRB6G20   30.11F
CHARLESTON     PTSUNNY   73  48  41 NW8       30.10F
PINEVILLE*     MOSUNNY   76  51  41 MISG      30.16S
BECKLEY        MOSUNNY   72  44  36 W14G22    30.13F
BLUEFIELD      MOSUNNY   68  44  42 W10G20    30.15F
LOGAN CO APT*    N/A     73  48  40 W8G14     30.12F
$$

VAZ002-007-008-TNZ017-027-036-066-071-262200
...SOUTHWEST VIRGINIA/EAST TENNESSEE...

CITY           SKY/WX    TMP DP  RH WIND       PRES   REMARKS
WISE*          MOSUNNY   73  46  38 NW9       30.17F
JONESVILLE*      N/A     79  50  36 W6        30.14F
ABINGDON*      CLOUDY    74  53  46 W10G17    30.14F
BRISTOL        CLOUDY    76  55  48 W13       30.11F
MORRISTOWN*    CLEAR     75  55  50 SW10G17   30.12F
SEVIERVILLE*   CLEAR     75  54  46 SW7       30.11F
KNOXVILLE      CLOUDY    76  57  51 W9        30.11F
LAFOLLETTE*    CLEAR     79  52  38 VRB5      30.15F
OAK RIDGE      MOSUNNY   80  56  43 VRB3      30.12F
CROSSVILLE     MOSUNNY   75  52  44 W9        30.16F
NASHVILLE      MOSUNNY   81  53  37 VRB3G16   30.12F
$$

...KEY TO REMARKS...
VSB - VISIBILITY IN MILES
WCI - WIND CHILL INDEX
HX  - HEAT INDEX

$$




USA.gov is the U.S. government's official web portal to all federal, state and local government web resources and services.